Regional Weather Roundup
Issued by NWS

Home | Current Version | Previous Version | Text Only | Print | Product List | Glossary Off
Versions: 1 2 3 4 5 6 7 8 9 10 11 12 13 14 15 16 17 18 19 20 21 22 23 24 25 26 27 28 29 30 31 32 33 34 35 36 37 38 39 40 41 42 43 44 45 46 47 48 49 50

000
ASUS43 KFSD 220802
RWRSD

WEATHER ROUNDUP FOR SOUTH DAKOTA
NATIONAL WEATHER SERVICE SIOUX FALLS SD
200 AM CST WED FEB 22 2017

NOTE: "FAIR" INDICATES FEW OR NO CLOUDS BELOW 12,000 FEET WITH NO
SIGNIFICANT WEATHER AND/OR OBSTRUCTIONS TO VISIBILITY.


SDZ001>005-009-010-012>017-220900-
NORTHWEST AND NORTH CENTRAL SOUTH DAKOTA

CITY           SKY/WX    TMP DP  RH WIND       PRES   REMARKS
BUFFALO          N/A     42  36  79 S9        29.58R
FAITH            N/A     41  38  89 S12       29.61F
MOBRIDGE       CLOUDY    39  33  79 CALM      29.62S
$$

SDZ012>016-024>037-041>051-057-063-072>074-220900-
SOUTHWEST AND SOUTH CENTRAL SOUTH DAKOTA

CITY           SKY/WX    TMP DP  RH WIND       PRES   REMARKS
RAPID CTY ARPT CLOUDY    44  37  76 SW12      29.69F
PIERRE         CLOUDY    45  38  76 W8        29.65R
CUSTER         CLOUDY    36  32  85 VRB3      29.74F
ELLSWORTH AFB  CLOUDY    45  38  75 SW10      29.67F
PHILIP         LGT RAIN  51  43  74 W15       29.67R
PINE RIDGE     MOCLDY    42  33  70 CALM      29.76R
SPEARFISH      FAIR      50  27  40 SW15G22   29.66F
WINNER         FAIR      49  36  61 S10       29.66F
$$

SDZ004>011-016>023-039-040-220900-
NORTHEAST SOUTH DAKOTA

CITY           SKY/WX    TMP DP  RH WIND       PRES   REMARKS
ABERDEEN       PTCLDY    37  33  85 N6        29.59F
WATERTOWN      MOCLDY    45  42  89 SE3       29.59F
BROOKINGS      CLOUDY    47  38  71 E7        29.62F
SISSETON         N/A     37  36  96 CALM      29.60F
$$

SDZ017-020-022-023-036>040-048>070-220900-
SOUTHEAST SOUTH DAKOTA

CITY           SKY/WX    TMP DP  RH WIND       PRES   REMARKS
SIOUX FALLS    CLOUDY    41  37  86 SW6       29.62F
HURON          CLOUDY    43  40  89 N6        29.60F
CHAMBERLAIN    CLEAR     46  39  77 SW8       29.65R
MITCHELL       CLOUDY    41  35  79 N5        29.62F
YANKTON        PTCLDY    52  30  43 CALM      29.65R
$$

ABBREVIATIONS USED IN REMARKS
   TC - TEMPERATURE IN CELSIUS
  WCI - WIND CHILL INDEX
   HX - HEAT INDEX
  VSB - VISIBILITY





USA.gov is the U.S. government's official web portal to all federal, state and local government web resources and services.